User: anonymous   Login
Location: Marseilles
(40.7010°N, 83.3930°W)
Time: 02:37:53
(UTC-04:00)
Language:

Cosmos 1459 Rocket - Orbit

View from above orbital plane
View from above orbital plane
View from above satellite
View from above satellite

Ground track
Ground track

The orbit data is extracted from the following two-line orbital elements,

1 14059U 83042B   15213.55584536 -.00000039  00000-0 -53839-4 0  9995
2 14059 082.9700 210.7927 0043453 034.1660 082.4258 13.78519161621295
Epoch (UTC): 01 August 2015 13:20:25
Eccentricity: 0.0043453
inclination: 82.9700°
perigee height: 937 km
apogee height: 1001 km
right ascension of ascending node: 210.7927°
argument of perigee: 34.1660°
revolutions per day: 13.78519161
mean anomaly at epoch: 82.4258°
orbit number at epoch: 62129

The dashed part of the orbit path shows where the satellite is in the earth's shadow,  

DLR